User: anonymous   Login
Location: NJAA Observatory
(40.6819°N, 74.8979°W)
Time: 21:43:51
(UTC-04:00)
Language:

Iridium 4 - Orbit

View from above orbital plane
View from above orbital plane
View from above satellite
View from above satellite

Ground track
Ground track

The orbit data is extracted from the following two-line orbital elements,

1 24796U 97020E   15146.43950082  .00000197  00000-0  62503-4 0  9991
2 24796 086.3959 272.9277 0002235 090.7176 333.7234 14.34939518945356
Epoch (UTC): 26 May 2015 10:32:52
Eccentricity: 0.0002235
inclination: 86.3959°
perigee height: 773 km
apogee height: 777 km
right ascension of ascending node: 272.9277°
argument of perigee: 90.7176°
revolutions per day: 14.34939518
mean anomaly at epoch: 333.7234°
orbit number at epoch: 94535

The dashed part of the orbit path shows where the satellite is in the earth's shadow,  

DLR